Regional Weather Roundup
Issued by NWS

Home | Current Version | Previous Version | Graphics & Text | Print | Product List | Glossary On
Versions: 1 2 3 4 5 6 7 8 9 10 11 12 13 14 15 16 17 18 19 20 21 22 23 24 25 26 27 28 29 30 31 32 33 34 35 36 37 38 39 40 41 42 43 44 45 46 47 48 49 50
000
ASUS43 KIND 310259
RWRIN

WEATHER ROUNDUP FOR INDIANA
NATIONAL WEATHER SERVICE INDIANAPOLIS IN
1100 PM EDT THU OCT 30 2014

NOTE: "FAIR" INDICATES FEW OR NO CLOUDS BELOW 12,000 FEET WITH NO
SIGNIFICANT WEATHER AND/OR OBSTRUCTIONS TO VISIBILITY.

* - STATION DOES NOT REPORT WEATHER SUCH AS PRECIPITATION OR FOG.

+ - STATION NOT QUALITY CONTROLLED BY THE NATIONAL WEATHER SERVICE.
    USE DATA WITH CAUTION...ESPECIALLY DEWPOINT AND RELATIVE
    HUMIDITY OBSERVATIONS.

INZ001>003-010>013-019-020-310400-
NORTHWEST INDIANA

CITY           SKY/WX    TMP DP  RH WIND       PRES   REMARKS
GARY /AIRPORT/ CLOUDY    48  37  66 W8        30.06S
VALPARAISO     NOT AVBL

$$

LMZ046-743>745-310400-
SOUTHERN LAKE MICHIGAN

STATION/POSITION TIME  TEMP WIND        PRES
                       AIR  DIR/SP/G
                 (UTC) (F)  (DEG/KT/KT) (MB)
MICHIGAN CITY    0200   49  220/  9/ 10   N/A

$$

INZ004-005-014>016-021>024-310400-
NORTH CENTRAL INDIANA

CITY           SKY/WX    TMP DP  RH WIND       PRES   REMARKS
GOSHEN         CLOUDY    45  37  73 S3        30.03F
SOUTH BEND     CLOUDY    46  36  68 SW3       30.04F

$$

INZ006>009-017-018-025>027-310400-
NORTHEAST INDIANA

CITY           SKY/WX    TMP DP  RH WIND       PRES   REMARKS
ANGOLA *+      CLOUDY    45  36  70 CALM      30.03S
FORT WAYNE     CLOUDY    44  37  76 CALM      30.05F

$$

INZ028-029-035-036-043>045-051>053-310400-
WEST CENTRAL INDIANA

CITY           SKY/WX    TMP DP  RH WIND       PRES   REMARKS
GREENCASTLE +  CLOUDY    45  39  81 CALM      30.07R
LAFAYETTE      CLOUDY    45  40  82 CALM      30.06S
TERRE HAUTE    LGT RAIN  47  43  86 N5        30.08S

$$

INZ030>032-037>040-046>048-054>057-064-065-310400-
CENTRAL INDIANA

CITY           SKY/WX    TMP DP  RH WIND       PRES   REMARKS
INDIANAPOLIS   LGT RAIN  48  39  71 W5        30.05R
-EAGLE CREEK   LGT RAIN  49  40  71 W6        30.05R
KOKOMO *+      MOCLDY    46  36  66 N5        30.06R
MT COMFORT *+  CLOUDY    45  36  70 CALM      30.05S
SHELBYVILLE    CLOUDY    47  40  76 CALM      30.04F

$$

INZ033-034-041-042-049-050-058-059-310400-
EAST CENTRAL INDIANA

CITY           SKY/WX    TMP DP  RH WIND       PRES   REMARKS
MUNCIE         CLOUDY    46  35  65 S5        30.05S

$$

INZ060-061-067>069-081>083-085>088-310400-
SOUTHWEST INDIANA

CITY           SKY/WX    TMP DP  RH WIND       PRES   REMARKS
EVANSVILLE     CLOUDY    51  45  79 CALM      30.06S
HUNTINGBURG *+ CLOUDY    48  43  81 NW3       30.07R

$$

INZ062-063-066-070>080-084-089>092-310400-
SOUTH CENTRAL AND SOUTHEAST INDIANA

CITY           SKY/WX    TMP DP  RH WIND       PRES   REMARKS
BLOOMINGTON    LGT RAIN  47  43  86 W3        30.06R
SEYMOUR +      CLOUDY    48  39  71 CALM      30.05

$$




USA.gov is the U.S. government's official web portal to all federal, state and local government web resources and services.